Location: La Pernelle
(49.6188°N, 1.2999°W)
Time: 14:44:22
(UTC+00:00)

COBE Rocket - Pass Details

Date: 12 June 2021
Orbit: 679 x 782 km, 97.1° (Epoch: 30 July)

Event Time Altitude Azimuth Distance (km) Brightness Sun altitude
Exits shadow 23:41:56 28° 192° (SSW) 1,417 4.8 -17.0°
Maximum altitude 23:44:32 59° 260° (W) 884 4.2 -17.0°
Drops below altitude 10° 23:49:31 10° 341° (NNW) 2,281 7.6 -17.1°
Sets 23:51:50 0° 345° (NNW) 3,193 8.8 -17.1°
